This is the latest recevied weather packets stored in our database for station/object N4HAC. If no packets are shown the sender has not sent any weather packets the latest 10 day(s).
| Time | Temp. | Humidity | Pressure | Rain* | Wind** | Luminosity | Snow |
|---|---|---|---|---|---|---|---|
| 1777925262 | 23.89° C | 38% | 1004 hPa | 0 mm | - | 430 W/m² | - |
| 1777924958 | 25° C | 37% | 1003.9 hPa | 0 mm | - | 572 W/m² | - |
| 1777924654 | 23.89° C | 37% | 1004.2 hPa | 0 mm | - | 602 W/m² | - |
| 1777924350 | 23.89° C | 38% | 1004.2 hPa | 0 mm | - | 635 W/m² | - |
| 1777924048 | 24.44° C | 38% | 1004.5 hPa | 0 mm | - | 621 W/m² | - |
| 1777923743 | 24.44° C | 35% | 1004.4 hPa | 0 mm | - | 667 W/m² | - |
| 1777923440 | 25° C | 37% | 1004.5 hPa | 0 mm | - | 674 W/m² | - |
| 1777923138 | 24.44° C | 36% | 1004.6 hPa | 0 mm | - | 713 W/m² | - |
| 1777922836 | 24.44° C | 36% | 1004.6 hPa | 0 mm | - | 752 W/m² | - |
| 1777922534 | 24.44° C | 37% | 1004.6 hPa | 0 mm | - | 755 W/m² | - |
| 1777922232 | 25° C | 37% | 1004.8 hPa | 0 mm | - | 778 W/m² | - |
| 1777921929 | 23.33° C | 40% | 1005.1 hPa | 0 mm | - | 775 W/m² | - |
| 1777921624 | 23.89° C | 36% | 1005.2 hPa | 0 mm | - | 774 W/m² | - |
| 1777921320 | 23.33° C | 38% | 1005 hPa | 0 mm | - | 778 W/m² | - |
| 1777921017 | 23.89° C | 38% | 1005 hPa | 0 mm | - | 778 W/m² | - |
| 1777920713 | 23.33° C | 35% | 1005.1 hPa | 0 mm | - | 792 W/m² | - |
| 1777920410 | 23.33° C | 37% | 1005.2 hPa | 0 mm | - | 384 W/m² | - |
| 1777920105 | 22.78° C | 39% | 1005.4 hPa | 0 mm | - | 400 W/m² | - |
| 1777919802 | 23.33° C | 41% | 1005.4 hPa | 0 mm | - | 303 W/m² | - |
| 1777919499 | 22.78° C | 39% | 1005.6 hPa | 0 mm | - | 957 W/m² | - |
| 1777919197 | 22.78° C | 40% | 1005.4 hPa | 0 mm | - | 1021 W/m² | - |
| 1777918894 | 22.78° C | 40% | 1005.6 hPa | 0 mm | - | 435 W/m² | - |
| 1777918592 | 22.22° C | 41% | 1005.7 hPa | 0 mm | - | 271 W/m² | - |
| 1777918289 | 22.78° C | 40% | 1006 hPa | 0 mm | - | 682 W/m² | - |
| 1777917988 | 22.78° C | 37% | 1005.8 hPa | 0 mm | - | 274 W/m² | - |
* Rain latest hour (hover to see other rain measurements)
** Current wind speed in m/s (hover to see current wind gust speed)